User: anonymous   Login
Location: Hylvaty SDH
(49.9612°N, 16.4057°E)
Time: 06:33:52
(UTC+01:00)
Language:

deb Explorer IX - Orbit

View from above orbital plane
View from above orbital plane
View from above satellite
View from above satellite

Ground track
Ground track

The orbit data is extracted from the following two-line orbital elements,

1 00085U 61004C   22027.01984828  .00003798  00000-0  81276-3 0  9991
2 00085  38.7644 253.4702 0373989 109.2394 254.9199 14.23710266 14890
Epoch (UTC): 27 January 2022 00:28:34
Eccentricity: 0.0373989
inclination: 38.7644°
perigee height: 544 km
apogee height: 1082 km
right ascension of ascending node: 253.4702°
argument of perigee: 109.2394°
revolutions per day: 14.23710266
mean anomaly at epoch: 254.9199°
orbit number at epoch: 1489

The dashed part of the orbit path shows where the satellite is in the earth's shadow,  

DLR